sat.trackr.live / text

‹ back to catalog

STARLINK-6079

NORAD 56120 · 2023-046AD

PAYLOAD ACTIVE UNKNOWN

§ Identity

Operator
Country
US
Launch date
2023-03-29
Launch site
AFETR
Launch vehicle
Mass (kg)
RCS (m²)

Purposes: comms

External: N2YO · Heavens-Above · Gunter

§ Orbital elements

Epoch: 2026-09-20T21:51:37.664640Z

Period
94.27 min
Inclination
43.0018°
Eccentricity
0.0000699
Mean motion
15.27561947 rev/d
Perigee alt
482.6 km
Apogee alt
483.6 km
Semi-major
6,861.2 km
B*
3.0554e-5
RAAN
124.7468°
Arg perigee
262.6276°
Mean anomaly
97.4496°
Rev number
19,205

§ Raw data

STARLINK-60791 56120U 23046AD  26263.91085260  .00000579  00000+0  30554-4 0  99902 56120  43.0018 124.7468 0000699 262.6276  97.4496 15.27561947192052

JSON: /api/v1/satellites/56120 · /tle

For live sub-satellite position, see the globe view (requires WebGL).

§ Visibility from observer

Set your observer location to see the next 7 days of passes ≥ 10°. The values pass through the URL so the page stays shareable.

No JS? Fill the form by hand. The geolocation button needs JavaScript.